When you browse on this site, cookies collect data to enhance your experience and personalize the content and advertising you see.
Visit our Privacy Policy to learn more. By continuing to use the site, you agree to this use of cookies and data.
  • En España
  • Lista de países
  • Para 7 días
  • Temperatura del agua
  • Mapa Satelital
  • El tiempo en el mapa
  • Informadores
  • user-avatar
    Iniciar sesión

    Tiempo cada hora Maksaky

    Hoy, 21 Marzo, Jueves

    Tiempo Temperatura Precipitaciones Viento Presión Humedad
    00:00 +2°C° 0 mm 2 mps 761 mmHg 77%
    01:00 +1°C° 0 mm 2 mps 761 mmHg 79%
    02:00 +1°C° 0 mm 2 mps 760 mmHg 80%
    03:00 +1°C° 0 mm 2 mps 760 mmHg 81%
    04:00 0°C° 0 mm 3 mps 760 mmHg 81%
    05:00 0°C° 0 mm 3 mps 759 mmHg 82%
    06:00 0°C° 0 mm 4 mps 759 mmHg 77%
    07:00 0°C° 0 mm 4 mps 759 mmHg 72%
    08:00 +1°C° 0 mm 5 mps 759 mmHg 67%
    09:00 +2°C° 0 mm 5 mps 758 mmHg 68%
    10:00 +2°C° 0 mm 6 mps 758 mmHg 69%
    11:00 +3°C° 0 mm 6 mps 758 mmHg 71%
    12:00 +4°C° 0 mm 6 mps 758 mmHg 70%
    13:00 +5°C° 0 mm 5 mps 758 mmHg 70%
    14:00 +5°C° 0 mm 5 mps 758 mmHg 69%
    15:00 +6°C° 0 mm 5 mps 758 mmHg 69%
    16:00 +6°C° 0 mm 4 mps 758 mmHg 69%
    17:00 +6°C° 0 mm 4 mps 758 mmHg 69%
    18:00 +5°C° 0 mm 3 mps 758 mmHg 72%
    19:00 +5°C° 0 mm 3 mps 758 mmHg 74%
    20:00 +5°C° 0 mm 2 mps 759 mmHg 77%
    21:00 +5°C° 0 mm 2 mps 759 mmHg 80%
    22:00 +3°C° 0 mm 3 mps 758 mmHg 83%
    23:00 +3°C° 0 mm 3 mps 758 mmHg 86%

    Mañana, 22 Marzo, Viernes

    Tiempo Temperatura Precipitaciones Viento Presión Humedad
    00:00 +2°C° 0 mm 3 mps 758 mmHg 88%
    01:00 +2°C° 0 mm 3 mps 758 mmHg 89%
    02:00 +2°C° 0 mm 2 mps 758 mmHg 91%
    03:00 +2°C° 0 mm 3 mps 757 mmHg 91%
    04:00 +2°C° 0 mm 3 mps 757 mmHg 92%
    05:00 +2°C° 0 mm 3 mps 756 mmHg 92%
    06:00 +1°C° 0.4 mm 4 mps 756 mmHg 92%
    07:00 +3°C° 0.4 mm 4 mps 755 mmHg 92%
    08:00 +2°C° 0.4 mm 5 mps 755 mmHg 93%
    09:00 +3°C° 0.7 mm 5 mps 755 mmHg 92%
    10:00 +5°C° 0.7 mm 5 mps 754 mmHg 91%
    11:00 +5°C° 0.7 mm 6 mps 754 mmHg 90%
    12:00 +7°C° 0.1 mm 6 mps 754 mmHg 84%
    13:00 +8°C° 0.1 mm 7 mps 753 mmHg 78%
    14:00 +9°C° 0.1 mm 8 mps 753 mmHg 72%
    15:00 +9°C° 0.1 mm 8 mps 753 mmHg 64%
    16:00 +7°C° 0.1 mm 8 mps 754 mmHg 56%
    17:00 +8°C° 0.1 mm 7 mps 754 mmHg 48%
    18:00 +5°C° 0 mm 7 mps 754 mmHg 51%
    19:00 +3°C° 0 mm 6 mps 755 mmHg 54%
    20:00 +2°C° 0 mm 6 mps 756 mmHg 57%
    21:00 +1°C° 0 mm 5 mps 756 mmHg 59%
    22:00 0°C° 0 mm 5 mps 756 mmHg 60%
    23:00 0°C° 0 mm 5 mps 756 mmHg 62%

    Pasado mañana, 23 Marzo, Sábado

    Tiempo Temperatura Precipitaciones Viento Presión Humedad
    00:00 0°C° 0 mm 5 mps 756 mmHg 63%
    01:00 -2°C° 0 mm 6 mps 756 mmHg 64%
    02:00 -2°C° 0 mm 6 mps 756 mmHg 65%
    03:00 -2°C° 0 mm 6 mps 756 mmHg 67%
    04:00 -3°C° 0 mm 6 mps 756 mmHg 69%
    05:00 -3°C° 0 mm 6 mps 756 mmHg 71%
    06:00 -3°C° 0 mm 6 mps 756 mmHg 69%
    07:00 -2°C° 0 mm 7 mps 756 mmHg 68%
    08:00 -2°C° 0 mm 7 mps 756 mmHg 66%
    09:00 -1°C° 0 mm 7 mps 756 mmHg 63%
    10:00 0°C° 0 mm 7 mps 756 mmHg 60%
    11:00 +2°C° 0 mm 6 mps 756 mmHg 57%
    12:00 +3°C° 0 mm 6 mps 756 mmHg 55%
    13:00 +3°C° 0 mm 6 mps 756 mmHg 54%
    14:00 +5°C° 0 mm 5 mps 756 mmHg 53%
    15:00 +5°C° 0 mm 4 mps 756 mmHg 55%
    16:00 +5°C° 0 mm 4 mps 756 mmHg 57%
    17:00 +5°C° 0 mm 3 mps 756 mmHg 59%
    18:00 +4°C° 0 mm 2 mps 757 mmHg 63%
    19:00 +4°C° 0 mm 1 mps 757 mmHg 68%
    20:00 +3°C° 0 mm 1 mps 757 mmHg 72%
    21:00 +3°C° 0 mm 1 mps 757 mmHg 72%
    22:00 +3°C° 0 mm 1 mps 757 mmHg 73%
    23:00 +2°C° 0 mm 2 mps 757 mmHg 73%

    24 Marzo, Domingo

    Tiempo Temperatura Precipitaciones Viento Presión Humedad
    00:00 +3°C° 0 mm 2 mps 756 mmHg 73%
    01:00 +3°C° 0 mm 2 mps 756 mmHg 73%
    02:00 +2°C° 0 mm 3 mps 755 mmHg 74%
    03:00 +2°C° 0.1 mm 3 mps 755 mmHg 72%
    04:00 +1°C° 0.1 mm 4 mps 754 mmHg 70%
    05:00 +1°C° 0.1 mm 4 mps 754 mmHg 69%
    06:00 +3°C° 0.4 mm 4 mps 754 mmHg 76%
    07:00 +3°C° 0.4 mm 4 mps 754 mmHg 83%
    08:00 +4°C° 0.4 mm 4 mps 753 mmHg 90%
    09:00 +5°C° 0 mm 5 mps 754 mmHg 80%
    10:00 +7°C° 0 mm 6 mps 754 mmHg 69%
    11:00 +8°C° 0 mm 6 mps 754 mmHg 59%
    12:00 +8°C° 0 mm 6 mps 754 mmHg 56%
    13:00 +8°C° 0 mm 7 mps 754 mmHg 53%
    14:00 +8°C° 0 mm 7 mps 754 mmHg 50%
    15:00 +8°C° 0 mm 6 mps 754 mmHg 50%
    16:00 +7°C° 0 mm 5 mps 754 mmHg 50%
    17:00 +7°C° 0 mm 4 mps 754 mmHg 49%
    18:00 +6°C° 0 mm 4 mps 755 mmHg 54%
    19:00 +4°C° 0 mm 3 mps 755 mmHg 59%
    20:00 +3°C° 0 mm 3 mps 755 mmHg 63%
    21:00 +2°C° 0 mm 3 mps 755 mmHg 65%
    22:00 +3°C° 0 mm 2 mps 755 mmHg 66%
    23:00 +2°C° 0 mm 2 mps 755 mmHg 68%

    25 Marzo, Lunes

    Tiempo Temperatura Precipitaciones Viento Presión Humedad
    00:00 +2°C° 0 mm 2 mps 755 mmHg 69%
    01:00 +1°C° 0 mm 2 mps 755 mmHg 69%
    02:00 +2°C° 0 mm 1 mps 755 mmHg 70%
    03:00 +2°C° 0 mm 1 mps 755 mmHg 70%
    04:00 +2°C° 0 mm 1 mps 755 mmHg 71%
    05:00 +1°C° 0 mm 1 mps 755 mmHg 71%
    06:00 +1°C° 0 mm 2 mps 755 mmHg 68%
    07:00 +2°C° 0 mm 2 mps 754 mmHg 65%
    08:00 +3°C° 0 mm 2 mps 754 mmHg 62%
    09:00 +3°C° 0 mm 3 mps 754 mmHg 58%
    10:00 +4°C° 0 mm 3 mps 753 mmHg 53%
    11:00 +5°C° 0 mm 4 mps 753 mmHg 48%
    12:00 +6°C° 0 mm 4 mps 752 mmHg 47%
    13:00 +6°C° 0 mm 4 mps 751 mmHg 46%
    14:00 +7°C° 0 mm 5 mps 750 mmHg 45%
    15:00 +7°C° 0 mm 5 mps 750 mmHg 47%
    16:00 +6°C° 0 mm 5 mps 749 mmHg 49%
    17:00 +6°C° 0 mm 5 mps 748 mmHg 51%
    18:00 +5°C° 0 mm 5 mps 747 mmHg 57%
    19:00 +5°C° 0 mm 5 mps 747 mmHg 63%
    20:00 +3°C° 0 mm 5 mps 746 mmHg 68%
    21:00 +3°C° 0.2 mm 5 mps 746 mmHg 73%
    22:00 +2°C° 0.2 mm 6 mps 745 mmHg 78%
    23:00 +2°C° 0.2 mm 6 mps 744 mmHg 83%

    26 Marzo, Martes

    Tiempo Temperatura Precipitaciones Viento Presión Humedad
    00:00 +2°C° 0.1 mm 6 mps 744 mmHg 84%
    01:00 +2°C° 0.1 mm 6 mps 743 mmHg 86%
    02:00 +2°C° 0.1 mm 6 mps 743 mmHg 87%
    03:00 +2°C° 0 mm 5 mps 743 mmHg 86%
    04:00 +1°C° 0 mm 5 mps 743 mmHg 85%
    05:00 0°C° 0 mm 5 mps 743 mmHg 84%
    06:00 0°C° 0 mm 5 mps 743 mmHg 78%
    07:00 -1°C° 0 mm 6 mps 743 mmHg 72%
    08:00 +1°C° 0 mm 6 mps 743 mmHg 66%
    09:00 +2°C° 0 mm 6 mps 743 mmHg 62%
    10:00 +2°C° 0 mm 6 mps 743 mmHg 57%
    11:00 +3°C° 0 mm 6 mps 743 mmHg 53%
    12:00 +3°C° 0.3 mm 6 mps 743 mmHg 52%
    13:00 +3°C° 0.3 mm 6 mps 743 mmHg 51%
    14:00 +4°C° 0.3 mm 6 mps 743 mmHg 51%
    15:00 +3°C° 0.2 mm 6 mps 743 mmHg 52%
    16:00 +3°C° 0.2 mm 6 mps 743 mmHg 53%
    17:00 +3°C° 0.2 mm 5 mps 743 mmHg 54%
    18:00 +2°C° 0 mm 5 mps 744 mmHg 58%
    19:00 +1°C° 0 mm 4 mps 744 mmHg 62%
    20:00 0°C° 0 mm 4 mps 745 mmHg 66%
    21:00 0°C° 0 mm 4 mps 745 mmHg 70%
    22:00 -1°C° 0 mm 4 mps 745 mmHg 73%
    23:00 -2°C° 0 mm 4 mps 745 mmHg 76%
    Mostrar más